Location: Brno
(49.2000°N, 16.6330°E)
Time: 02:18:57
(UTC+02:00)

Vanguard 3 - Pass Details

Date: 02 August 2021
Orbit: 510 x 3260 km, 33.3° (Epoch: 19 September)

Event Time Altitude Azimuth Distance (km) Brightness Sun altitude
Rises 23:13:59 0° 271° (W) 6,775 12.2 -19.3°
Reaches altitude 10° 23:18:53 10° 264° (W) 5,979 11.8 -19.6°
Maximum altitude 23:34:56 34° 209° (SSW) 4,440 10.5 -20.7°
Enters shadow 23:43:01 25° 173° (S) 4,735 10.4 -21.1°
Drops below altitude 10° 23:49:54 10° 153° (SSE) 5,548 - -21.5°
Sets 23:54:16 0° 145° (SE) 6,247 - -21.7°
